This is the latest recevied weather packets stored in our database for station/object KD4MBW. If no packets are shown the sender has not sent any weather packets the latest 10 day(s).
| Time | Temp. | Humidity | Pressure | Rain* | Wind** | Luminosity | Snow |
|---|---|---|---|---|---|---|---|
| 1778114596 | 23.33° C | 94% | 1014.9 hPa | 0 mm | - | 0 W/m² | - |
| 1778114292 | 23.33° C | 94% | 1014.9 hPa | 0 mm | - | 0 W/m² | - |
| 1778113982 | 23.33° C | 93% | 1015.1 hPa | 0 mm | - | 0 W/m² | - |
| 1778113678 | 23.33° C | 93% | 1014.7 hPa | 0 mm | - | 1 W/m² | - |
| 1778113374 | 23.89° C | 92% | 1014.7 hPa | 0 mm | - | 2 W/m² | - |
| 1778113072 | 23.89° C | 91% | 1014.4 hPa | 0 mm | - | 4 W/m² | - |
| 1778112769 | 23.89° C | 90% | 1014.4 hPa | 0 mm | - | 6 W/m² | - |
| 1778112465 | 23.89° C | 90% | 1014.2 hPa | 0 mm | - | 9 W/m² | - |
| 1778112161 | 24.44° C | 88% | 1014.3 hPa | 0 mm | - | 14 W/m² | - |
| 1778111858 | 24.44° C | 87% | 1014.4 hPa | 0 mm | - | 21 W/m² | - |
| 1778111553 | 24.44° C | 86% | 1014.4 hPa | 0 mm | - | 26 W/m² | - |
| 1778111250 | 25° C | 85% | 1014.4 hPa | 0 mm | - | 30 W/m² | - |
| 1778110948 | 25° C | 84% | 1014.3 hPa | 0 mm | - | 36 W/m² | - |
| 1778110645 | 25° C | 83% | 1014.2 hPa | 0 mm | - | 41 W/m² | - |
| 1778110341 | 25.56° C | 82% | 1014.1 hPa | 0 mm | - | 47 W/m² | - |
| 1778110038 | 25.56° C | 81% | 1014.2 hPa | 0 mm | - | 54 W/m² | - |
| 1778109733 | 25.56° C | 80% | 1014 hPa | 0 mm | - | 61 W/m² | - |
| 1778109430 | 25.56° C | 77% | 1014.3 hPa | 0 mm | - | 70 W/m² | - |
| 1778109129 | 26.11° C | 76% | 1014.2 hPa | 0 mm | - | 79 W/m² | - |
| 1778108825 | 26.11° C | 74% | 1014.1 hPa | 0 mm | - | 90 W/m² | - |
| 1778108522 | 26.11° C | 73% | 1014.2 hPa | 0 mm | - | 102 W/m² | - |
| 1778108218 | 26.67° C | 72% | 1014.4 hPa | 0 mm | - | 115 W/m² | - |
| 1778107915 | 26.11° C | 74% | 1014.3 hPa | 0 mm | - | 128 W/m² | - |
| 1778107612 | 26.67° C | 74% | 1014.3 hPa | 0 mm | - | 141 W/m² | - |
| 1778107309 | 26.67° C | 72% | 1014.3 hPa | 0 mm | - | 155 W/m² | - |
* Rain latest hour (hover to see other rain measurements)
** Current wind speed in m/s (hover to see current wind gust speed)